�N����,�����b,�ŏ������i�x�j,���ϕ����i�x�j,�ő啗���i�x�j,�ŏ�����(m/s),���ϕ���(m/s),�ő啗��(m/s),�C��(���j,���x�i���j,�C��(hPa),�~�J��(mm),�~�J����(�b�j,�~�J���x(mm/h),�ő�~�J���x(mm/h),�~�Ђ傤��(hit/���u),�~�Ђ傤����(�b�j,�~�Ђ傤���x(hit/���uh),�ő�~�Ђ傤���x(hit/���uh),�q�[�^���x(���j,�q�[�^�[�d���iV),�d���d���iV),�Q�Ɠd���iV)
2014/12/01,00:00:01,211,220,236,2.5,2.6,2.9,23.6,85.9,1005.0,0.00,0,0.0,////,0.0,0,0.0,////,22.5,0.0,12.3,3.513
2014/12/01,00:10:01,209,211,213,1.2,1.4,1.6,23.6,85.8,1005.0,0.00,0,0.0,////,0.0,0,0.0,////,22.5,0.0,12.3,3.513
2014/12/01,00:20:01,204,213,228,4.1,4.5,5.2,23.7,86.4,1004.8,0.00,0,0.0,////,0.0,0,0.0,////,22.5,0.0,12.3,3.511
2014/12/01,00:30:01,195,210,218,2.2,3.0,3.5,23.7,87.4,1004.6,0.00,0,0.0,////,0.0,0,0.0,////,22.5,0.0,12.3,3.511
2014/12/01,00:40:01,190,206,232,0.6,0.9,1.3,23.6,88.3,1004.5,0.00,0,0.0,////,0.0,0,0.0,////,22.4,0.0,12.3,3.513
2014/12/01,00:50:01,211,211,212,3.5,3.7,4.1,23.4,88.0,1004.3,0.00,0,0.0,////,0.0,0,0.0,////,22.2,0.0,12.3,3.514
2014/12/01,01:00:01,226,235,242,3.6,3.9,4.2,23.4,88.3,1004.4,0.00,0,0.0,////,0.0,0,0.0,////,22.4,0.0,12.3,3.511
2014/12/01,01:10:01,229,233,238,5.2,5.4,5.7,23.3,87.7,1004.2,0.00,0,0.0,////,0.0,0,0.0,////,22.2,0.0,12.3,3.513
2014/12/01,01:20:01,211,214,219,2.7,3.5,3.9,23.1,87.1,1004.1,0.00,0,0.0,////,0.0,0,0.0,////,22.2,0.0,12.3,3.514
2014/12/01,01:30:01,213,218,221,3.6,4.6,5.4,23.1,86.5,1004.2,0.00,0,0.0,////,0.0,0,0.0,////,22.0,0.0,12.3,3.513
2014/12/01,01:40:01,234,244,252,2.4,2.8,3.3,23.2,86.3,1004.0,0.00,0,0.0,////,0.0,0,0.0,////,22.0,0.0,12.2,3.510
2014/12/01,01:50:01,212,220,228,2.8,3.1,3.4,23.3,86.3,1004.0,0.00,0,0.0,////,0.0,0,0.0,////,22.4,0.0,12.3,3.511
2014/12/01,02:00:01,232,242,258,1.9,2.7,3.3,23.3,87.2,1004.1,0.00,0,0.0,////,0.0,0,0.0,////,22.2,0.0,12.3,3.513
2014/12/01,02:10:01,216,225,232,3.3,3.5,3.8,23.2,86.6,1004.0,0.00,0,0.0,////,0.0,0,0.0,////,22.2,0.0,12.3,3.513
2014/12/01,02:20:01,208,215,220,3.0,3.6,4.1,23.2,86.9,1004.1,0.00,0,0.0,////,0.0,0,0.0,////,22.2,0.0,12.4,3.511
2014/12/01,02:30:01,244,264,283,0.5,0.9,1.3,23.3,87.2,1004.2,0.05,180,0.0,////,0.0,0,0.0,////,22.0,0.0,12.3,3.513
2014/12/01,02:40:01,258,265,273,3.4,3.7,4.0,22.4,87.5,1004.3,0.74,580,5.3,////,0.0,0,0.0,////,21.2,0.0,12.3,3.514
2014/12/01,02:50:01,235,237,239,4.3,4.7,4.9,21.8,89.0,1004.6,0.22,500,0.1,////,0.0,0,0.0,////,20.5,0.0,12.3,3.514
2014/12/01,03:00:01,211,219,223,1.8,2.1,2.3,21.8,90.2,1004.3,0.85,530,2.9,////,0.0,0,0.0,////,20.3,0.0,12.3,3.513
2014/12/01,03:10:01,229,231,234,2.1,2.9,3.4,21.7,91.4,1004.4,1.10,590,8.6,////,0.0,0,0.0,////,20.1,0.0,12.3,3.513
2014/12/01,03:20:01,298,307,314,2.9,3.4,3.7,21.5,90.9,1004.6,0.84,580,0.2,////,0.0,0,0.0,////,20.1,0.0,12.3,3.513
2014/12/01,03:30:01,350,352,355,3.3,3.6,3.8,22.1,91.8,1004.4,0.40,550,0.1,////,0.0,0,0.0,////,20.6,0.0,12.3,3.513
2014/12/01,03:40:01,343,353,005,4.8,5.3,5.7,22.4,89.9,1004.3,0.00,10,0.0,////,0.0,0,0.0,////,21.2,0.0,12.3,3.513
2014/12/01,03:50:01,333,340,350,4.8,5.4,5.8,22.4,87.9,1004.5,0.00,0,0.0,////,0.0,0,0.0,////,21.3,0.0,12.3,3.511
2014/12/01,04:00:01,334,341,353,3.9,4.4,5.0,22.5,87.8,1004.6,0.00,0,0.0,////,0.0,0,0.0,////,21.3,0.0,12.3,3.511
2014/12/01,04:10:01,333,342,347,4.8,5.2,5.5,22.5,87.1,1004.6,0.00,0,0.0,////,0.0,0,0.0,////,21.5,0.0,12.3,3.511
2014/12/01,04:20:01,298,322,347,4.5,5.1,5.7,22.5,87.4,1004.6,0.00,0,0.0,////,0.0,0,0.0,////,21.7,0.0,12.2,3.513
2014/12/01,04:30:01,359,005,010,5.6,7.3,9.0,22.3,86.7,1004.6,0.00,0,0.0,////,0.0,0,0.0,////,21.3,0.0,12.3,3.513
2014/12/01,04:40:01,352,359,004,4.7,4.8,5.0,22.3,86.5,1004.7,0.00,0,0.0,////,0.0,0,0.0,////,21.5,0.0,12.3,3.511
2014/12/01,04:50:01,316,334,358,3.2,3.7,4.3,22.1,86.3,1005.0,0.00,0,0.0,////,0.0,0,0.0,////,21.3,0.0,12.3,3.513
2014/12/01,05:00:01,333,343,353,4.9,5.4,5.9,22.0,86.3,1004.9,0.00,0,0.0,////,0.0,0,0.0,////,21.0,0.0,12.3,3.511
2014/12/01,05:10:01,332,348,002,5.7,6.5,7.3,21.8,86.5,1005.0,0.00,0,0.0,////,0.0,0,0.0,////,20.8,0.0,12.3,3.513
2014/12/01,05:20:01,330,344,001,5.7,6.3,6.7,21.7,86.2,1005.3,0.00,0,0.0,////,0.0,0,0.0,////,20.8,0.0,12.3,3.513
2014/12/01,05:30:01,324,328,333,4.6,5.5,6.8,21.6,85.3,1005.4,0.00,0,0.0,////,0.0,0,0.0,////,20.5,0.0,12.3,3.513
2014/12/01,05:40:01,333,345,354,6.3,7.3,8.2,21.4,85.6,1005.6,0.00,0,0.0,////,0.0,0,0.0,////,20.1,0.0,12.3,3.511
2014/12/01,05:50:01,352,354,356,5.3,6.0,7.1,21.4,84.2,1005.7,0.00,0,0.0,////,0.0,0,0.0,////,20.3,0.0,12.3,3.513
2014/12/01,06:00:01,331,347,358,4.9,5.7,6.2,20.7,87.4,1006.0,0.00,40,0.0,////,0.0,0,0.0,////,19.6,0.0,12.3,3.513
2014/12/01,06:10:01,338,343,352,6.3,7.4,8.1,20.7,86.9,1006.0,0.01,30,0.0,////,0.0,0,0.0,////,19.4,0.0,12.3,3.513
2014/12/01,06:20:01,326,336,356,7.8,8.7,9.4,20.3,85.1,1006.1,0.00,0,0.0,////,0.0,0,0.0,////,19.3,0.0,12.3,3.513
2014/12/01,06:30:01,334,348,001,4.3,5.4,6.5,20.6,85.0,1006.1,0.00,0,0.0,////,0.0,0,0.0,////,19.3,0.0,12.3,3.513
2014/12/01,06:40:01,326,346,355,8.5,10.1,11.2,20.3,84.6,1006.6,0.00,30,0.0,////,0.0,0,0.0,////,19.3,0.0,12.3,3.515
2014/12/01,06:50:01,001,003,005,6.9,7.4,7.9,20.3,82.3,1006.6,0.00,0,0.0,////,0.0,0,0.0,////,19.3,0.0,12.3,3.511
2014/12/01,07:00:01,333,341,352,6.3,7.6,9.3,20.6,82.7,1006.8,0.00,0,0.0,////,0.0,0,0.0,////,19.4,0.0,12.3,3.515
2014/12/01,07:10:01,335,343,354,7.6,8.2,8.5,20.5,82.1,1007.2,0.03,210,0.0,////,0.0,0,0.0,////,19.3,0.0,12.3,3.513
2014/12/01,07:20:01,341,354,004,7.6,8.4,9.1,20.4,83.3,1007.1,0.00,30,0.0,////,0.0,0,0.0,////,18.9,0.0,12.3,3.511
2014/12/01,07:30:01,347,348,349,8.6,8.9,9.4,20.2,84.4,1007.2,0.00,0,0.0,////,0.0,0,0.0,////,18.9,0.0,12.3,3.513
2014/12/01,07:40:01,318,332,347,4.7,6.9,9.2,19.9,83.9,1007.6,0.00,10,0.0,////,0.0,0,0.0,////,18.7,0.0,12.3,3.511
2014/12/01,07:50:01,332,337,340,8.2,8.8,9.6,20.1,81.1,1007.7,0.04,310,0.5,////,0.0,0,0.0,////,18.6,0.0,12.2,3.514
2014/12/01,08:00:01,353,004,017,8.7,9.9,10.4,19.8,81.4,1007.8,0.03,280,0.4,////,0.0,0,0.0,////,18.4,0.0,12.3,3.511
2014/12/01,08:10:01,344,356,002,6.0,6.4,6.8,19.5,81.3,1007.9,0.06,310,0.2,////,0.0,0,0.0,////,18.2,0.0,12.2,3.511
2014/12/01,08:20:01,334,337,341,6.8,7.2,7.9,19.4,81.1,1007.9,0.16,580,0.6,////,0.0,0,0.0,////,17.7,0.0,12.3,3.513
2014/12/01,08:30:01,352,001,008,5.4,7.7,9.9,19.6,82.1,1008.1,0.14,460,0.4,////,0.0,0,0.0,////,17.9,0.0,12.3,3.515
2014/12/01,08:40:01,338,352,357,5.6,6.3,7.4,19.5,79.6,1008.4,0.00,80,0.0,////,0.0,0,0.0,////,18.1,0.0,12.2,3.513
2014/12/01,08:50:01,330,335,341,4.4,5.6,6.4,19.5,77.3,1008.8,0.10,450,0.5,////,0.0,0,0.0,////,17.7,0.0,12.3,3.513
2014/12/01,09:00:01,342,345,351,5.9,6.5,7.2,20.0,78.6,1008.8,0.00,20,0.0,////,0.0,0,0.0,////,18.2,0.0,12.3,3.513
2014/12/01,09:10:01,337,339,340,8.8,9.7,10.8,20.0,76.3,1008.9,0.01,60,0.0,////,0.0,0,0.0,////,18.6,0.0,12.3,3.511
2014/12/01,09:20:01,358,002,007,6.3,6.7,7.1,19.9,75.8,1009.0,0.00,0,0.0,////,0.0,0,0.0,////,18.9,0.0,12.3,3.513
2014/12/01,09:30:01,356,002,009,4.8,5.2,5.6,20.1,77.7,1009.3,0.00,20,0.0,////,0.0,0,0.0,////,19.1,0.0,12.3,3.513
2014/12/01,09:40:01,327,334,346,8.3,8.8,9.4,20.0,76.1,1009.4,0.00,0,0.0,////,0.0,0,0.0,////,19.1,0.0,12.3,3.513
2014/12/01,09:50:01,348,352,357,6.6,7.6,8.6,20.0,77.8,1009.4,0.00,0,0.0,////,0.0,0,0.0,////,19.3,0.0,12.3,3.513
2014/12/01,10:00:01,335,345,001,8.5,10.2,11.1,19.7,76.6,1009.2,0.00,0,0.0,////,0.0,0,0.0,////,18.7,0.0,12.3,3.513
2014/12/01,10:10:01,325,331,334,5.8,6.7,7.6,19.9,73.6,1009.3,0.00,0,0.0,////,0.0,0,0.0,////,18.7,0.0,12.3,3.513
2014/12/01,10:20:01,345,350,353,8.9,9.2,9.4,20.0,75.1,1009.5,0.00,0,0.0,////,0.0,0,0.0,////,19.1,0.0,12.3,3.514
2014/12/01,10:30:01,334,344,350,3.4,3.6,3.7,20.0,73.3,1009.2,0.02,70,0.1,////,0.0,0,0.0,////,19.3,0.0,12.3,3.513
2014/12/01,10:40:01,347,353,356,5.8,6.8,7.6,19.9,75.2,1009.0,0.02,210,0.0,////,0.0,0,0.0,////,18.9,0.0,12.3,3.514
2014/12/01,10:50:01,347,350,354,6.9,7.6,8.4,19.9,75.0,1009.0,0.00,0,0.0,////,0.0,0,0.0,////,18.9,0.0,12.3,3.511
2014/12/01,11:00:01,340,353,004,5.4,7.1,8.6,19.9,74.4,1009.0,0.00,40,0.0,////,0.0,0,0.0,////,19.1,0.0,12.3,3.513
2014/12/01,11:10:01,347,353,356,6.4,8.6,10.2,20.0,73.8,1009.0,0.00,0,0.0,////,0.0,0,0.0,////,19.1,0.0,12.3,3.513
2014/12/01,11:20:01,340,348,353,6.3,6.8,7.4,20.2,76.2,1008.3,0.01,180,0.0,////,0.0,0,0.0,////,19.1,0.0,12.3,3.513
2014/12/01,11:30:01,339,345,352,7.6,7.9,8.2,19.7,76.3,1009.2,0.06,390,1.1,////,0.0,0,0.0,////,18.1,0.0,12.3,3.513
2014/12/01,11:40:01,356,005,011,2.8,3.6,4.3,19.2,75.4,1009.0,0.26,520,0.0,////,0.0,0,0.0,////,17.2,0.0,12.3,3.511
2014/12/01,11:50:01,346,354,006,5.2,6.6,8.0,19.7,75.0,1008.3,0.05,330,0.7,////,0.0,0,0.0,////,17.7,0.0,12.3,3.511
2014/12/01,12:00:01,000,001,002,5.9,6.1,6.3,19.3,73.6,1007.8,0.15,510,0.0,////,0.0,0,0.0,////,17.2,0.0,12.3,3.513
2014/12/01,12:10:01,332,348,357,5.1,6.3,6.9,20.0,71.4,1008.3,0.00,10,0.0,////,0.0,0,0.0,////,18.4,0.0,12.3,3.513
2014/12/01,12:20:01,344,347,352,6.0,6.8,8.2,20.2,69.6,1008.8,0.00,0,0.0,////,0.0,0,0.0,////,19.3,0.0,12.3,3.513
2014/12/01,12:30:01,330,345,012,5.6,6.7,7.1,20.2,71.4,1007.9,0.00,0,0.0,////,0.0,0,0.0,////,19.3,0.0,12.2,3.515
2014/12/01,12:40:01,342,351,359,6.7,7.6,8.6,20.3,71.6,1008.2,0.00,0,0.0,////,0.0,0,0.0,////,19.6,0.0,12.3,3.513
2014/12/01,12:50:01,330,343,350,7.5,8.8,9.6,20.4,73.0,1008.0,0.00,0,0.0,////,0.0,0,0.0,////,19.8,0.0,12.3,3.513
2014/12/01,13:00:01,335,342,351,5.1,6.4,7.3,20.5,73.5,1008.0,0.00,0,0.0,////,0.0,0,0.0,////,20.0,0.0,12.3,3.514
2014/12/01,13:10:01,345,358,014,7.8,8.4,9.1,20.0,73.8,1007.9,0.00,0,0.0,////,0.0,0,0.0,////,19.6,0.0,12.3,3.513
2014/12/01,13:20:01,342,345,348,7.6,8.0,8.5,20.1,73.3,1007.7,0.00,0,0.0,////,0.0,0,0.0,////,19.6,0.0,12.3,3.514
2014/12/01,13:30:01,347,356,001,3.2,3.3,3.5,20.0,71.8,1007.6,0.00,0,0.0,////,0.0,0,0.0,////,19.6,0.0,12.3,3.511
2014/12/01,13:40:01,334,341,352,5.5,6.5,8.4,20.1,71.3,1007.7,0.00,0,0.0,////,0.0,0,0.0,////,19.4,0.0,12.3,3.513
2014/12/01,13:50:01,338,351,004,6.1,6.8,7.6,20.2,68.9,1007.6,0.00,0,0.0,////,0.0,0,0.0,////,19.3,0.0,12.3,3.513
2014/12/01,14:00:01,349,351,354,6.7,7.0,7.5,20.3,68.4,1007.6,0.00,0,0.0,////,0.0,0,0.0,////,20.3,0.0,12.3,3.514
2014/12/01,14:10:01,356,358,001,8.3,9.9,10.9,20.2,72.1,1007.6,0.00,0,0.0,////,0.0,0,0.0,////,19.4,0.0,12.3,3.511
2014/12/01,14:20:01,336,340,345,7.7,8.1,8.3,20.0,71.2,1007.7,0.00,0,0.0,////,0.0,0,0.0,////,19.3,0.0,12.3,3.513
2014/12/01,14:30:01,343,345,348,8.9,9.8,10.4,20.1,69.9,1007.7,0.00,0,0.0,////,0.0,0,0.0,////,19.3,0.0,12.3,3.514
2014/12/01,14:40:01,336,337,339,7.9,9.1,9.7,20.1,70.0,1007.7,0.00,0,0.0,////,0.0,0,0.0,////,19.4,0.0,12.3,3.514
2014/12/01,14:50:01,343,347,350,7.9,8.9,9.7,20.0,70.8,1007.7,0.00,30,0.0,////,0.0,0,0.0,////,18.9,0.0,12.3,3.514
2014/12/01,15:00:01,345,352,356,7.0,7.9,9.3,20.1,69.9,1007.6,0.00,0,0.0,////,0.0,0,0.0,////,19.3,0.0,12.3,3.513
2014/12/01,15:10:01,329,339,346,4.9,5.1,5.4,20.0,70.9,1007.6,0.00,0,0.0,////,0.0,0,0.0,////,19.3,0.0,12.3,3.513
2014/12/01,15:20:01,344,357,008,7.0,7.2,7.4,20.0,69.4,1007.6,0.00,0,0.0,////,0.0,0,0.0,////,19.3,0.0,12.3,3.513
2014/12/01,15:30:01,343,348,355,9.9,10.2,10.7,19.8,68.4,1007.9,0.00,0,0.0,////,0.0,0,0.0,////,19.1,0.0,12.3,3.513
2014/12/01,15:40:01,344,358,011,6.0,6.5,7.0,19.9,68.4,1008.1,0.00,0,0.0,////,0.0,0,0.0,////,19.1,0.0,12.3,3.513
2014/12/01,15:50:01,351,357,006,6.2,6.9,8.0,19.8,68.8,1008.1,0.00,0,0.0,////,0.0,0,0.0,////,18.9,0.0,12.3,3.511
2014/12/01,16:00:01,345,346,347,9.0,9.8,10.5,19.8,69.3,1008.3,0.00,0,0.0,////,0.0,0,0.0,////,18.7,0.0,12.3,3.511
2014/12/01,16:10:01,346,355,007,6.1,7.2,8.1,19.8,70.4,1008.5,0.00,0,0.0,////,0.0,0,0.0,////,18.7,0.0,12.3,3.513
2014/12/01,16:20:01,349,354,003,5.7,6.5,7.4,19.6,67.0,1008.5,0.00,0,0.0,////,0.0,0,0.0,////,18.6,0.0,12.3,3.513
2014/12/01,16:30:01,335,354,016,5.4,6.1,6.8,19.5,68.8,1008.8,0.00,0,0.0,////,0.0,0,0.0,////,18.4,0.0,12.3,3.511
2014/12/01,16:40:01,353,356,358,5.7,7.3,8.3,19.5,67.9,1008.9,0.00,0,0.0,////,0.0,0,0.0,////,18.7,0.0,12.3,3.514
2014/12/01,16:50:01,342,352,001,8.3,9.6,11.1,19.4,67.5,1009.1,0.00,0,0.0,////,0.0,0,0.0,////,18.4,0.0,12.3,3.513
2014/12/01,17:00:01,342,347,352,10.3,11.3,12.0,19.5,68.5,1009.2,0.00,0,0.0,////,0.0,0,0.0,////,18.4,0.0,12.3,3.513
2014/12/01,17:10:01,351,355,002,7.7,9.7,11.5,19.1,66.2,1009.4,0.00,0,0.0,////,0.0,0,0.0,////,18.2,0.0,12.3,3.514
2014/12/01,17:20:01,350,352,354,9.3,9.8,10.1,19.1,65.5,1009.7,0.00,0,0.0,////,0.0,0,0.0,////,18.1,0.0,12.3,3.513
2014/12/01,17:30:01,347,350,354,8.6,8.7,8.9,19.0,64.7,1009.8,0.00,0,0.0,////,0.0,0,0.0,////,17.9,0.0,12.3,3.513
2014/12/01,17:40:01,348,356,002,5.8,7.6,8.7,18.9,62.7,1009.8,0.00,0,0.0,////,0.0,0,0.0,////,17.9,0.0,12.3,3.513
2014/12/01,17:50:01,341,348,355,9.7,10.2,10.7,19.1,65.1,1009.9,0.00,0,0.0,////,0.0,0,0.0,////,17.9,0.0,12.3,3.514
2014/12/01,18:00:01,345,352,357,5.3,5.9,6.3,19.1,62.0,1010.0,0.00,0,0.0,////,0.0,0,0.0,////,18.1,0.0,12.3,3.511
2014/12/01,18:10:01,339,347,001,5.1,5.8,6.3,19.0,63.8,1010.1,0.00,0,0.0,////,0.0,0,0.0,////,17.9,0.0,12.3,3.513
2014/12/01,18:20:01,351,011,020,6.5,7.3,8.4,18.9,63.2,1010.2,0.00,0,0.0,////,0.0,0,0.0,////,17.9,0.0,12.3,3.513
2014/12/01,18:30:01,356,359,001,6.3,7.0,8.0,18.7,62.7,1010.3,0.00,0,0.0,////,0.0,0,0.0,////,17.7,0.0,12.3,3.514
2014/12/01,18:40:01,345,347,351,9.8,10.3,11.0,18.9,60.2,1010.3,0.00,0,0.0,////,0.0,0,0.0,////,17.9,0.0,12.3,3.513
2014/12/01,18:50:01,348,003,009,4.9,7.4,9.9,18.6,64.3,1010.5,0.00,0,0.0,////,0.0,0,0.0,////,17.5,0.0,12.3,3.513
2014/12/01,19:00:01,002,005,007,7.6,8.6,9.7,18.6,63.7,1010.8,0.00,0,0.0,////,0.0,0,0.0,////,17.5,0.0,12.3,3.511
2014/12/01,19:10:01,340,348,355,4.7,5.2,5.7,18.5,62.0,1010.9,0.00,0,0.0,////,0.0,0,0.0,////,17.5,0.0,12.3,3.511
2014/12/01,19:20:01,358,005,010,6.9,8.3,9.4,18.6,64.0,1010.9,0.00,0,0.0,////,0.0,0,0.0,////,17.5,0.0,12.3,3.514
2014/12/01,19:30:01,000,002,003,4.8,6.1,7.0,18.5,60.2,1010.8,0.00,0,0.0,////,0.0,0,0.0,////,17.5,0.0,12.3,3.514
2014/12/01,19:40:01,334,347,009,3.8,4.4,4.9,18.5,57.5,1010.9,0.00,0,0.0,////,0.0,0,0.0,////,17.4,0.0,12.3,3.513
2014/12/01,19:50:01,344,348,352,5.3,7.0,8.0,18.5,56.0,1010.9,0.00,0,0.0,////,0.0,0,0.0,////,17.4,0.0,12.3,3.513
2014/12/01,20:00:01,003,007,012,4.8,5.0,5.2,18.6,58.8,1010.9,0.00,0,0.0,////,0.0,0,0.0,////,17.7,0.0,12.2,3.514
2014/12/01,20:10:01,340,353,359,5.3,8.0,9.5,18.4,60.1,1011.1,0.00,0,0.0,////,0.0,0,0.0,////,17.5,0.0,12.3,3.513
2014/12/01,20:20:01,010,015,020,4.2,4.5,4.7,18.4,66.0,1011.0,0.00,0,0.0,////,0.0,0,0.0,////,17.4,0.0,12.3,3.513
2014/12/01,20:30:01,347,358,004,4.9,5.4,5.9,18.2,64.2,1011.2,0.00,0,0.0,////,0.0,0,0.0,////,17.2,0.0,12.3,3.514
2014/12/01,20:40:01,004,007,008,9.6,10.3,11.1,18.3,64.6,1011.4,0.00,0,0.0,////,0.0,0,0.0,////,17.2,0.0,12.3,3.514
2014/12/01,20:50:01,351,356,001,9.1,9.1,9.2,18.0,63.1,1011.5,0.00,0,0.0,////,0.0,0,0.0,////,17.0,0.0,12.3,3.511
2014/12/01,21:00:01,356,004,009,7.4,8.0,8.8,17.9,63.8,1011.7,0.00,0,0.0,////,0.0,0,0.0,////,16.9,0.0,12.3,3.515
2014/12/01,21:10:01,349,350,350,5.2,5.8,6.1,17.8,62.4,1011.7,0.00,0,0.0,////,0.0,0,0.0,////,17.0,0.0,12.3,3.510
2014/12/01,21:20:01,344,345,346,9.3,10.2,10.7,17.8,60.7,1011.7,0.00,0,0.0,////,0.0,0,0.0,////,16.9,0.0,12.3,3.513
2014/12/01,21:30:01,340,344,347,8.8,9.0,9.2,17.6,61.2,1011.9,0.00,0,0.0,////,0.0,0,0.0,////,16.5,0.0,12.3,3.513
2014/12/01,21:40:01,342,349,356,8.3,9.0,9.7,17.7,59.9,1011.9,0.00,0,0.0,////,0.0,0,0.0,////,16.5,0.0,12.3,3.515
2014/12/01,21:50:01,352,012,024,4.9,5.4,6.1,17.5,57.7,1012.0,0.00,0,0.0,////,0.0,0,0.0,////,16.7,0.0,12.3,3.513
2014/12/01,22:00:01,353,001,006,5.0,5.7,6.0,17.5,58.5,1012.2,0.00,0,0.0,////,0.0,0,0.0,////,16.5,0.0,12.3,3.513
2014/12/01,22:10:01,333,339,346,6.1,6.7,7.2,17.5,59.5,1012.2,0.00,0,0.0,////,0.0,0,0.0,////,16.3,0.0,12.3,3.513
2014/12/01,22:20:01,350,357,007,7.4,8.4,9.3,17.4,60.5,1012.3,0.00,0,0.0,////,0.0,0,0.0,////,16.5,0.0,12.3,3.513
2014/12/01,22:30:01,356,005,012,7.1,7.6,8.0,17.3,60.2,1012.2,0.00,0,0.0,////,0.0,0,0.0,////,16.2,0.0,12.3,3.513
2014/12/01,22:40:01,005,015,022,10.2,11.0,11.8,17.2,58.6,1012.3,0.00,0,0.0,////,0.0,0,0.0,////,16.2,0.0,12.3,3.513
2014/12/01,22:50:01,321,332,342,4.4,5.2,7.1,17.3,55.2,1012.3,0.00,0,0.0,////,0.0,0,0.0,////,16.2,0.0,12.2,3.513
2014/12/01,23:00:01,354,006,012,4.6,5.8,7.1,17.3,59.4,1012.2,0.00,0,0.0,////,0.0,0,0.0,////,16.3,0.0,12.3,3.511
2014/12/01,23:10:01,358,004,011,7.7,7.8,7.9,17.3,57.3,1012.1,0.00,0,0.0,////,0.0,0,0.0,////,16.3,0.0,12.3,3.513
2014/12/01,23:20:01,357,002,010,6.0,6.6,7.4,17.3,58.3,1011.8,0.00,0,0.0,////,0.0,0,0.0,////,16.5,0.0,12.3,3.514
2014/12/01,23:30:01,009,012,018,6.4,6.8,7.3,17.2,59.6,1011.6,0.00,0,0.0,////,0.0,0,0.0,////,16.2,0.0,12.3,3.514
2014/12/01,23:40:01,353,002,007,5.3,6.0,6.4,17.3,55.9,1011.4,0.00,0,0.0,////,0.0,0,0.0,////,16.2,0.0,12.3,3.511
2014/12/01,23:50:01,007,010,013,7.7,8.1,8.7,17.2,54.4,1011.3,0.00,0,0.0,////,0.0,0,0.0,////,16.3,0.0,12.1,3.513
2014/12/02,00:00:01,336,347,001,6.8,7.1,7.8,17.2,61.9,1011.3,0.00,0,0.0,////,0.0,0,0.0,////,16.2,0.0,12.3,3.513
2014/12/02,00:10:01,353,000,007,6.1,7.1,7.7,17.1,65.0,1011.7,0.00,0,0.0,////,0.0,0,0.0,////,16.0,0.0,12.3,3.514
2014/12/02,00:20:01,332,340,346,6.2,7.5,8.3,16.9,62.1,1012.0,0.00,0,0.0,////,0.0,0,0.0,////,16.0,0.0,12.3,3.511
2014/12/02,00:30:01,347,354,000,6.0,7.0,7.7,16.9,59.6,1012.4,0.00,0,0.0,////,0.0,0,0.0,////,15.8,0.0,12.3,3.513
2014/12/02,00:40:01,346,350,356,4.1,4.2,4.2,16.8,57.7,1012.3,0.00,0,0.0,////,0.0,0,0.0,////,15.8,0.0,12.3,3.513
2014/12/02,00:50:01,353,003,014,5.2,5.9,6.8,16.9,60.7,1012.0,0.00,0,0.0,////,0.0,0,0.0,////,15.8,0.0,12.3,3.513
2014/12/02,01:00:01,344,350,356,7.8,8.7,9.2,16.9,64.0,1011.6,0.00,0,0.0,////,0.0,0,0.0,////,15.8,0.0,12.3,3.514
2014/12/02,01:10:01,337,344,352,6.9,7.0,7.1,16.7,55.4,1011.5,0.00,0,0.0,////,0.0,0,0.0,////,15.8,0.0,12.3,3.513
2014/12/02,01:20:01,338,353,006,5.2,5.6,6.3,16.8,56.3,1011.5,0.00,0,0.0,////,0.0,0,0.0,////,15.6,0.0,12.3,3.511
2014/12/02,01:30:01,354,356,358,7.0,8.1,9.7,16.7,55.6,1011.4,0.00,0,0.0,////,0.0,0,0.0,////,15.6,0.0,12.3,3.511
2014/12/02,01:40:01,354,000,006,5.6,6.2,6.8,16.8,56.3,1011.4,0.00,0,0.0,////,0.0,0,0.0,////,15.8,0.0,12.3,3.515
2014/12/02,01:50:01,348,359,010,4.8,5.0,5.3,16.9,54.7,1011.9,0.00,0,0.0,////,0.0,0,0.0,////,15.8,0.0,12.3,3.513
2014/12/02,02:00:01,335,344,358,5.3,7.6,9.2,16.9,58.0,1012.2,0.00,0,0.0,////,0.0,0,0.0,////,15.8,0.0,12.3,3.511
2014/12/02,02:10:01,341,349,358,5.6,7.6,9.1,16.5,58.9,1012.2,0.00,0,0.0,////,0.0,0,0.0,////,15.8,0.0,12.3,3.513
2014/12/02,02:20:01,349,351,352,5.6,5.9,6.5,16.7,64.7,1012.3,0.00,0,0.0,////,0.0,0,0.0,////,15.5,0.0,12.3,3.513
2014/12/02,02:30:01,352,358,008,7.5,8.4,10.3,16.6,62.1,1012.1,0.00,0,0.0,////,0.0,0,0.0,////,15.6,0.0,12.3,3.514
2014/12/02,02:40:01,356,005,023,7.2,7.4,7.7,16.9,65.1,1011.6,0.00,0,0.0,////,0.0,0,0.0,////,15.6,0.0,12.3,3.513
2014/12/02,02:50:01,355,000,006,6.2,7.8,10.4,16.8,62.4,1011.7,0.00,0,0.0,////,0.0,0,0.0,////,15.6,0.0,12.3,3.513
2014/12/02,03:00:01,338,345,349,4.7,5.7,6.2,16.7,62.5,1011.3,0.00,0,0.0,////,0.0,0,0.0,////,15.6,0.0,12.3,3.513
2014/12/02,03:10:01,358,358,359,9.0,9.4,10.1,16.6,61.8,1011.7,0.00,0,0.0,////,0.0,0,0.0,////,15.3,0.0,12.3,3.514
2014/12/02,03:20:01,341,352,004,5.0,5.6,6.1,16.7,59.9,1011.7,0.00,0,0.0,////,0.0,0,0.0,////,15.6,0.0,12.3,3.513
2014/12/02,03:30:01,355,007,015,3.9,5.8,6.9,16.7,64.1,1011.5,0.00,0,0.0,////,0.0,0,0.0,////,15.6,0.0,12.3,3.514
2014/12/02,03:40:01,346,356,004,4.1,6.1,7.1,16.6,63.6,1012.0,0.00,0,0.0,////,0.0,0,0.0,////,15.8,0.0,12.3,3.513
2014/12/02,03:50:01,340,344,353,6.9,7.4,8.1,16.6,62.8,1012.4,0.00,0,0.0,////,0.0,0,0.0,////,15.6,0.0,12.4,3.513
2014/12/02,04:00:01,342,345,346,5.3,6.0,7.0,16.5,61.1,1012.7,0.00,0,0.0,////,0.0,0,0.0,////,15.6,0.0,12.3,3.514
2014/12/02,04:10:01,345,351,355,7.5,8.0,8.7,16.6,64.1,1012.4,0.00,0,0.0,////,0.0,0,0.0,////,15.3,0.0,12.3,3.513
2014/12/02,04:20:01,324,356,022,2.0,2.7,3.8,16.6,62.5,1012.4,0.00,0,0.0,////,0.0,0,0.0,////,15.5,0.0,12.3,3.514
2014/12/02,04:30:01,354,359,007,6.1,6.4,6.6,16.6,61.7,1012.3,0.00,0,0.0,////,0.0,0,0.0,////,15.6,0.0,12.3,3.513
2014/12/02,04:40:01,359,005,008,6.7,7.8,8.5,16.7,64.6,1012.2,0.00,0,0.0,////,0.0,0,0.0,////,15.5,0.0,12.3,3.511
2014/12/02,04:50:01,000,003,006,4.6,5.0,5.4,16.4,63.6,1012.4,0.00,0,0.0,////,0.0,0,0.0,////,15.5,0.0,12.3,3.513
2014/12/02,05:00:01,356,359,001,7.8,8.7,9.4,16.7,62.4,1012.2,0.00,0,0.0,////,0.0,0,0.0,////,15.5,0.0,12.3,3.513
2014/12/02,05:10:01,341,350,355,6.3,7.0,7.4,16.3,65.0,1012.2,0.04,310,0.4,////,0.0,0,0.0,////,15.3,0.0,12.3,3.513
2014/12/02,05:20:01,355,003,009,5.2,6.1,7.0,15.9,66.4,1012.2,0.09,550,0.6,////,0.0,0,0.0,////,14.1,0.0,12.3,3.516
2014/12/02,05:30:01,318,331,341,6.8,7.6,8.3,15.8,74.0,1012.5,0.09,520,0.1,////,0.0,0,0.0,////,13.7,0.0,12.3,3.514
2014/12/02,05:40:01,353,009,022,4.3,5.0,6.3,15.4,71.0,1012.6,0.05,450,0.0,////,0.0,0,0.0,////,13.4,0.0,12.3,3.513
2014/12/02,05:50:01,001,008,012,3.2,4.1,4.7,15.5,70.3,1012.6,0.01,110,0.0,////,0.0,0,0.0,////,13.4,0.0,12.3,3.514
2014/12/02,06:00:01,355,003,012,5.1,5.6,6.3,16.0,67.2,1012.7,0.00,80,0.1,////,0.0,0,0.0,////,13.9,0.0,12.3,3.514
2014/12/02,06:10:01,354,000,003,4.6,4.9,5.3,16.2,64.6,1012.7,0.02,230,0.1,////,0.0,0,0.0,////,14.3,0.0,12.3,3.514
2014/12/02,06:20:01,351,359,012,4.7,5.0,5.3,16.5,65.1,1013.0,0.00,50,0.0,////,0.0,0,0.0,////,14.8,0.0,12.3,3.514
2014/12/02,06:30:01,337,353,006,5.4,6.7,7.9,16.6,67.9,1013.2,0.00,0,0.0,////,0.0,0,0.0,////,15.1,0.0,12.3,3.513
2014/12/02,06:40:01,351,357,001,4.3,4.7,5.4,16.4,64.7,1013.4,0.00,0,0.0,////,0.0,0,0.0,////,15.3,0.0,12.3,3.514
2014/12/02,06:50:01,359,001,003,4.3,5.9,7.1,16.4,63.2,1013.3,0.00,0,0.0,////,0.0,0,0.0,////,15.5,0.0,12.3,3.513
2014/12/02,07:00:01,351,001,006,3.0,4.0,5.0,16.6,66.8,1013.4,0.00,0,0.0,////,0.0,0,0.0,////,15.5,0.0,12.3,3.513
2014/12/02,07:10:01,001,006,013,6.8,7.5,8.5,16.7,66.4,1013.7,0.00,0,0.0,////,0.0,0,0.0,////,15.5,0.0,12.3,3.513
2014/12/02,07:20:01,354,002,010,4.9,5.5,6.4,16.6,63.8,1013.8,0.00,0,0.0,////,0.0,0,0.0,////,15.8,0.0,12.3,3.511
2014/12/02,07:30:01,354,002,014,3.4,4.0,4.5,16.6,63.3,1013.9,0.00,0,0.0,////,0.0,0,0.0,////,16.0,0.0,12.3,3.513
2014/12/02,07:40:01,336,342,345,6.6,7.5,8.1,16.9,66.0,1013.9,0.00,0,0.0,////,0.0,0,0.0,////,15.3,0.0,12.3,3.514
2014/12/02,07:50:01,354,003,012,6.5,7.3,8.9,16.6,59.8,1014.0,0.00,0,0.0,////,0.0,0,0.0,////,15.6,0.0,12.3,3.514
2014/12/02,08:00:01,358,011,021,3.9,6.0,7.5,16.6,58.5,1013.8,0.00,0,0.0,////,0.0,0,0.0,////,15.6,0.0,12.3,3.511
2014/12/02,08:10:01,012,014,015,6.6,7.0,7.3,16.7,61.7,1013.7,0.00,0,0.0,////,0.0,0,0.0,////,15.8,0.0,12.3,3.513
2014/12/02,08:20:01,008,008,009,8.1,8.7,9.5,16.7,59.8,1013.9,0.00,0,0.0,////,0.0,0,0.0,////,15.6,0.0,12.3,3.514
2014/12/02,08:30:01,359,002,006,5.2,5.7,6.3,16.7,61.3,1013.9,0.00,0,0.0,////,0.0,0,0.0,////,16.0,0.0,12.3,3.513
2014/12/02,08:40:01,005,012,019,6.5,6.8,7.2,16.6,58.7,1014.0,0.00,0,0.0,////,0.0,0,0.0,////,16.0,0.0,12.3,3.513
2014/12/02,08:50:01,000,005,014,4.8,5.5,5.9,16.8,59.2,1014.3,0.00,0,0.0,////,0.0,0,0.0,////,16.0,0.0,12.3,3.514
2014/12/02,09:00:01,012,020,028,7.4,8.0,8.4,16.8,58.3,1014.7,0.00,0,0.0,////,0.0,0,0.0,////,16.0,0.0,12.3,3.513
2014/12/02,09:10:01,349,000,008,5.8,6.3,6.9,16.6,57.1,1014.6,0.00,0,0.0,////,0.0,0,0.0,////,16.0,0.0,12.3,3.514
2014/12/02,09:20:01,355,004,011,3.9,4.0,4.2,16.8,58.0,1015.0,0.00,0,0.0,////,0.0,0,0.0,////,15.8,0.0,12.3,3.513
2014/12/02,09:30:01,009,012,016,4.0,4.4,4.7,16.7,59.0,1014.8,0.00,0,0.0,////,0.0,0,0.0,////,15.8,0.0,12.3,3.511
2014/12/02,09:40:01,004,010,015,7.2,8.0,8.5,16.7,59.1,1014.1,0.00,0,0.0,////,0.0,0,0.0,////,15.8,0.0,12.3,3.513
2014/12/02,09:50:01,019,028,039,3.4,3.7,3.9,17.0,59.3,1014.2,0.00,0,0.0,////,0.0,0,0.0,////,16.3,0.0,12.3,3.514
2014/12/02,10:00:01,357,004,010,6.6,7.1,8.1,17.1,62.0,1014.0,0.00,0,0.0,////,0.0,0,0.0,////,16.9,0.0,12.3,3.511
2014/12/02,10:10:01,338,351,001,4.7,5.1,6.0,17.1,63.2,1014.4,0.00,0,0.0,////,0.0,0,0.0,////,16.5,0.0,12.3,3.513
2014/12/02,10:20:01,354,003,007,5.5,6.5,7.2,16.8,57.2,1014.3,0.00,0,0.0,////,0.0,0,0.0,////,16.2,0.0,12.3,3.514
2014/12/02,10:30:01,016,022,031,4.3,4.8,5.1,17.7,58.1,1014.4,0.00,0,0.0,////,0.0,0,0.0,////,18.2,0.0,12.1,3.513